When you browse on this site, cookies collect data to enhance your experience and personalize the content and advertising you see.
Visit our Privacy Policy to learn more. By continuing to use the site, you agree to this use of cookies and data.
  • In Romania
  • List of Countries
  • For 7 days
  • Water Temperature
  • Weather Map
  • Weather Widgets
  • user-avatar
    Login

    Hourly Weather Bagdad

    Today, 21 February, Friday

    Time Temperature Precipitation Wind Pressure Humidity
    00:00 +16°C° 0 mm 3 mps 758 mmHg 59%
    01:00 +15°C° 0 mm 2 mps 758 mmHg 61%
    02:00 +15°C° 0 mm 2 mps 758 mmHg 63%
    03:00 +14°C° 0 mm 2 mps 758 mmHg 66%
    04:00 +14°C° 0 mm 2 mps 758 mmHg 67%
    05:00 +14°C° 0 mm 2 mps 759 mmHg 69%
    06:00 +13°C° 0 mm 2 mps 759 mmHg 71%
    07:00 +14°C° 0 mm 2 mps 759 mmHg 68%
    08:00 +15°C° 0 mm 1 mps 759 mmHg 64%
    09:00 +16°C° 0 mm 1 mps 760 mmHg 60%
    16:00 +21°C° 0 mm 2 mps 758 mmHg 37%
    17:00 +20°C° 0 mm 2 mps 758 mmHg 39%
    18:00 +20°C° 0 mm 2 mps 758 mmHg 41%
    19:00 +19°C° 0 mm 2 mps 758 mmHg 43%
    20:00 +18°C° 0 mm 2 mps 758 mmHg 46%
    21:00 +18°C° 0 mm 2 mps 758 mmHg 48%
    22:00 +18°C° 0 mm 1 mps 758 mmHg 49%
    23:00 +18°C° 0 mm 1 mps 758 mmHg 51%

    Tomorrow, 22 February, Saturday

    Time Temperature Precipitation Wind Pressure Humidity
    00:00 +16°C° 0 mm 1 mps 758 mmHg 52%
    01:00 +16°C° 0 mm 1 mps 758 mmHg 51%
    02:00 +16°C° 0 mm 2 mps 758 mmHg 50%
    03:00 +16°C° 0 mm 3 mps 757 mmHg 48%
    04:00 +16°C° 0 mm 3 mps 758 mmHg 48%
    05:00 +16°C° 0 mm 3 mps 758 mmHg 49%
    06:00 +14°C° 0 mm 3 mps 758 mmHg 49%
    07:00 +15°C° 0 mm 4 mps 758 mmHg 46%
    08:00 +17°C° 0 mm 5 mps 758 mmHg 43%
    09:00 +19°C° 0 mm 5 mps 759 mmHg 40%
    10:00 +20°C° 0 mm 6 mps 759 mmHg 36%
    11:00 +22°C° 0 mm 6 mps 759 mmHg 31%
    12:00 +24°C° 0 mm 7 mps 758 mmHg 27%
    13:00 +24°C° 0 mm 7 mps 758 mmHg 26%
    14:00 +26°C° 0 mm 7 mps 757 mmHg 25%
    15:00 +26°C° 0 mm 7 mps 756 mmHg 24%
    16:00 +24°C° 0 mm 7 mps 756 mmHg 26%
    17:00 +24°C° 0 mm 6 mps 756 mmHg 27%
    18:00 +23°C° 0 mm 6 mps 756 mmHg 28%
    19:00 +22°C° 0 mm 6 mps 757 mmHg 31%
    20:00 +21°C° 0 mm 6 mps 757 mmHg 33%
    21:00 +20°C° 0 mm 5 mps 757 mmHg 36%
    22:00 +19°C° 0 mm 5 mps 757 mmHg 39%
    23:00 +17°C° 0 mm 5 mps 758 mmHg 42%

    Day after tomorrow, 23 February, Sunday

    Time Temperature Precipitation Wind Pressure Humidity
    00:00 +18°C° 0 mm 4 mps 758 mmHg 45%
    01:00 +17°C° 0 mm 4 mps 757 mmHg 51%
    02:00 +15°C° 0 mm 5 mps 757 mmHg 57%
    03:00 +14°C° 0 mm 5 mps 757 mmHg 63%
    04:00 +14°C° 0 mm 5 mps 757 mmHg 67%
    05:00 +13°C° 0 mm 5 mps 758 mmHg 70%
    06:00 +13°C° 0 mm 4 mps 758 mmHg 74%
    07:00 +14°C° 0 mm 4 mps 758 mmHg 70%
    08:00 +15°C° 0 mm 5 mps 759 mmHg 66%
    09:00 +16°C° 0 mm 5 mps 759 mmHg 62%
    10:00 +17°C° 0 mm 5 mps 759 mmHg 55%
    11:00 +20°C° 0 mm 4 mps 759 mmHg 48%
    12:00 +22°C° 0 mm 4 mps 759 mmHg 41%
    13:00 +22°C° 0 mm 4 mps 759 mmHg 39%
    14:00 +22°C° 0 mm 4 mps 758 mmHg 37%
    15:00 +23°C° 0 mm 4 mps 758 mmHg 35%
    16:00 +22°C° 0 mm 4 mps 758 mmHg 39%
    17:00 +21°C° 0 mm 4 mps 758 mmHg 42%
    18:00 +20°C° 0 mm 3 mps 758 mmHg 46%
    19:00 +19°C° 0 mm 3 mps 758 mmHg 47%
    20:00 +19°C° 0 mm 3 mps 758 mmHg 49%
    21:00 +18°C° 0 mm 3 mps 759 mmHg 50%
    22:00 +18°C° 0 mm 3 mps 759 mmHg 51%
    23:00 +17°C° 0 mm 3 mps 759 mmHg 51%

    24 February, Monday

    Time Temperature Precipitation Wind Pressure Humidity
    00:00 +17°C° 0 mm 3 mps 759 mmHg 51%
    01:00 +17°C° 0 mm 3 mps 758 mmHg 53%
    02:00 +16°C° 0 mm 3 mps 758 mmHg 55%
    03:00 +15°C° 0 mm 4 mps 758 mmHg 56%
    04:00 +15°C° 0 mm 4 mps 757 mmHg 59%
    05:00 +15°C° 0 mm 4 mps 757 mmHg 62%
    06:00 +14°C° 0 mm 4 mps 757 mmHg 65%
    07:00 +16°C° 0 mm 3 mps 757 mmHg 62%
    08:00 +17°C° 0 mm 3 mps 757 mmHg 58%
    09:00 +18°C° 0 mm 3 mps 757 mmHg 55%
    10:00 +19°C° 0 mm 3 mps 757 mmHg 49%
    11:00 +20°C° 0 mm 3 mps 756 mmHg 42%
    12:00 +23°C° 0 mm 2 mps 756 mmHg 36%
    13:00 +22°C° 0 mm 3 mps 755 mmHg 35%
    14:00 +22°C° 0 mm 3 mps 755 mmHg 33%
    15:00 +24°C° 0 mm 3 mps 754 mmHg 32%
    16:00 +22°C° 0 mm 3 mps 754 mmHg 34%
    17:00 +21°C° 0 mm 4 mps 754 mmHg 36%
    18:00 +21°C° 0 mm 4 mps 753 mmHg 38%
    19:00 +20°C° 0 mm 4 mps 753 mmHg 38%
    20:00 +20°C° 0 mm 4 mps 753 mmHg 39%
    21:00 +19°C° 0 mm 4 mps 753 mmHg 39%
    22:00 +19°C° 0 mm 4 mps 752 mmHg 41%
    23:00 +19°C° 0 mm 4 mps 752 mmHg 42%

    25 February, Tuesday

    Time Temperature Precipitation Wind Pressure Humidity
    00:00 +19°C° 0 mm 5 mps 751 mmHg 44%
    01:00 +19°C° 0.5 mm 5 mps 750 mmHg 54%
    02:00 +19°C° 0.5 mm 5 mps 750 mmHg 64%
    03:00 +17°C° 0.5 mm 5 mps 749 mmHg 75%
    04:00 +18°C° 0.6 mm 4 mps 748 mmHg 78%
    05:00 +17°C° 0.6 mm 4 mps 747 mmHg 82%
    06:00 +17°C° 0.6 mm 4 mps 747 mmHg 85%
    07:00 +16°C° 1.9 mm 6 mps 747 mmHg 78%
    08:00 +15°C° 1.9 mm 8 mps 746 mmHg 71%
    09:00 +14°C° 1.9 mm 10 mps 746 mmHg 63%
    10:00 +16°C° 0.4 mm 10 mps 746 mmHg 56%
    11:00 +18°C° 0.4 mm 10 mps 746 mmHg 49%
    12:00 +19°C° 0.4 mm 10 mps 746 mmHg 43%
    13:00 +19°C° 0 mm 10 mps 747 mmHg 40%
    14:00 +19°C° 0 mm 10 mps 747 mmHg 38%
    15:00 +21°C° 0 mm 11 mps 747 mmHg 36%
    16:00 +18°C° 0 mm 10 mps 748 mmHg 40%
    17:00 +17°C° 0 mm 10 mps 749 mmHg 45%
    18:00 +16°C° 0 mm 10 mps 750 mmHg 49%
    19:00 +14°C° 0.1 mm 10 mps 751 mmHg 43%
    20:00 +12°C° 0.1 mm 10 mps 751 mmHg 36%
    21:00 +11°C° 0.1 mm 9 mps 752 mmHg 30%
    22:00 +11°C° 0 mm 9 mps 753 mmHg 32%
    23:00 +10°C° 0 mm 9 mps 753 mmHg 34%

    26 February, Wednesday

    Time Temperature Precipitation Wind Pressure Humidity
    00:00 +10°C° 0 mm 8 mps 754 mmHg 36%
    01:00 +10°C° 0 mm 8 mps 754 mmHg 37%
    02:00 +9°C° 0 mm 7 mps 755 mmHg 39%
    03:00 +9°C° 0 mm 7 mps 755 mmHg 41%
    04:00 +8°C° 0 mm 6 mps 755 mmHg 42%
    05:00 +8°C° 0 mm 6 mps 756 mmHg 43%
    06:00 +8°C° 0 mm 5 mps 756 mmHg 45%
    07:00 +8°C° 0 mm 5 mps 757 mmHg 43%
    08:00 +9°C° 0 mm 5 mps 758 mmHg 41%
    09:00 +9°C° 0 mm 5 mps 759 mmHg 39%
    10:00 +11°C° 0 mm 4 mps 759 mmHg 36%
    11:00 +12°C° 0 mm 3 mps 760 mmHg 33%
    12:00 +14°C° 0 mm 2 mps 760 mmHg 30%
    13:00 +15°C° 0 mm 2 mps 760 mmHg 28%
    14:00 +15°C° 0 mm 2 mps 760 mmHg 25%
    15:00 +16°C° 0 mm 3 mps 760 mmHg 22%
    16:00 +15°C° 0 mm 2 mps 760 mmHg 23%
    17:00 +15°C° 0 mm 2 mps 760 mmHg 23%
    18:00 +14°C° 0 mm 2 mps 761 mmHg 24%
    19:00 +14°C° 0 mm 2 mps 761 mmHg 26%
    20:00 +13°C° 0 mm 2 mps 761 mmHg 27%
    21:00 +12°C° 0 mm 1 mps 761 mmHg 29%
    22:00 +12°C° 0 mm 1 mps 761 mmHg 30%
    23:00 +11°C° 0 mm 1 mps 762 mmHg 32%
    Show more